When you browse on this site, cookies collect data to enhance your experience and personalize the content and advertising you see.
Visit our Privacy Policy to learn more. By continuing to use the site, you agree to this use of cookies and data.
  • In Hungary
  • List of Countries
  • For 7 days
  • Water Temperature
  • Satellite Maps
  • Weather Map
  • News
  • Weather Widgets
  • user-avatar
    Login

    Hourly Weather Karcze

    Today, 19 December, Wednesday

    Time Temperature Precipitation Wind Pressure Humidity
    00:00 -2°C° 0 mm 3 mps 747 mmHg 88%
    01:00 -2°C° 0 mm 3 mps 747 mmHg 88%
    02:00 -2°C° 0 mm 3 mps 747 mmHg 87%
    03:00 -2°C° 0 mm 3 mps 747 mmHg 87%
    04:00 -4°C° 0 mm 4 mps 747 mmHg 86%
    05:00 -4°C° 0 mm 4 mps 746 mmHg 86%
    06:00 -4°C° 0 mm 4 mps 746 mmHg 85%
    07:00 -4°C° 0 mm 4 mps 746 mmHg 84%
    08:00 -4°C° 0 mm 4 mps 746 mmHg 82%
    09:00 -3°C° 0 mm 4 mps 746 mmHg 79%
    10:00 -4°C° 0 mm 5 mps 746 mmHg 76%
    11:00 -2°C° 0 mm 5 mps 745 mmHg 74%
    12:00 -2°C° 0 mm 5 mps 745 mmHg 72%
    13:00 -1°C° 0 mm 5 mps 744 mmHg 70%
    14:00 -2°C° 0 mm 4 mps 744 mmHg 72%
    15:00 -2°C° 0 mm 4 mps 744 mmHg 75%
    16:00 -3°C° 0 mm 4 mps 744 mmHg 77%
    17:00 -3°C° 0 mm 4 mps 743 mmHg 76%
    18:00 -3°C° 0 mm 4 mps 743 mmHg 76%
    19:00 -3°C° 0 mm 4 mps 743 mmHg 75%
    20:00 -3°C° 0 mm 4 mps 743 mmHg 75%
    21:00 -3°C° 0 mm 4 mps 743 mmHg 75%
    22:00 -3°C° 0 mm 4 mps 743 mmHg 75%
    23:00 -3°C° 0 mm 4 mps 742 mmHg 74%

    Tomorrow, 20 December, Thursday

    Time Temperature Precipitation Wind Pressure Humidity
    00:00 -3°C° 0 mm 4 mps 742 mmHg 74%
    01:00 -3°C° 0 mm 4 mps 742 mmHg 73%
    02:00 -3°C° 0 mm 4 mps 742 mmHg 73%
    03:00 -2°C° 0 mm 3 mps 742 mmHg 72%
    04:00 -2°C° 0 mm 3 mps 742 mmHg 72%
    05:00 -2°C° 0 mm 3 mps 742 mmHg 71%
    06:00 -2°C° 0 mm 3 mps 742 mmHg 71%
    07:00 -3°C° 0 mm 4 mps 742 mmHg 71%
    08:00 -3°C° 0 mm 4 mps 742 mmHg 70%
    09:00 -3°C° 0 mm 4 mps 742 mmHg 70%
    10:00 -4°C° 0 mm 5 mps 741 mmHg 69%
    11:00 -4°C° 0 mm 5 mps 741 mmHg 69%
    12:00 -4°C° 0 mm 5 mps 741 mmHg 70%
    13:00 -2°C° 0 mm 5 mps 741 mmHg 70%
    14:00 -4°C° 0 mm 5 mps 741 mmHg 73%
    15:00 -3°C° 0 mm 4 mps 741 mmHg 76%
    16:00 -3°C° 0 mm 4 mps 741 mmHg 79%
    17:00 -3°C° 0.1 mm 4 mps 741 mmHg 81%
    18:00 -2°C° 0.1 mm 4 mps 741 mmHg 83%
    19:00 -2°C° 0.1 mm 4 mps 741 mmHg 85%
    20:00 -2°C° 0.1 mm 4 mps 741 mmHg 86%
    21:00 -2°C° 0.1 mm 4 mps 741 mmHg 86%
    22:00 -1°C° 0.1 mm 4 mps 741 mmHg 87%
    23:00 -2°C° 0 mm 4 mps 741 mmHg 88%

    Day after tomorrow, 21 December, Friday

    Time Temperature Precipitation Wind Pressure Humidity
    00:00 -2°C° 0 mm 4 mps 741 mmHg 89%
    01:00 -2°C° 0 mm 4 mps 741 mmHg 90%
    02:00 -2°C° 0 mm 5 mps 741 mmHg 89%
    03:00 -2°C° 0 mm 5 mps 741 mmHg 89%
    04:00 -1°C° 0 mm 5 mps 741 mmHg 89%
    05:00 -1°C° 0 mm 5 mps 740 mmHg 89%
    06:00 -1°C° 0 mm 5 mps 740 mmHg 89%
    07:00 -2°C° 0 mm 5 mps 740 mmHg 89%
    08:00 -1°C° 0 mm 5 mps 740 mmHg 88%
    09:00 -1°C° 0 mm 5 mps 740 mmHg 86%
    10:00 0°C° 0 mm 5 mps 739 mmHg 85%
    11:00 0°C° 0 mm 5 mps 739 mmHg 84%
    12:00 0°C° 0 mm 5 mps 738 mmHg 83%
    13:00 0°C° 0 mm 5 mps 737 mmHg 82%
    14:00 0°C° 0.2 mm 5 mps 737 mmHg 83%
    15:00 0°C° 0.2 mm 5 mps 736 mmHg 84%
    16:00 0°C° 0.2 mm 5 mps 735 mmHg 85%
    17:00 -1°C° 0.5 mm 6 mps 735 mmHg 85%
    18:00 -1°C° 0.5 mm 6 mps 734 mmHg 85%
    19:00 -1°C° 0.5 mm 7 mps 733 mmHg 85%
    20:00 0°C° 0.7 mm 7 mps 733 mmHg 85%
    21:00 +2°C° 0.7 mm 7 mps 732 mmHg 85%
    22:00 +1°C° 0.7 mm 8 mps 731 mmHg 85%
    23:00 +2°C° 0.2 mm 7 mps 731 mmHg 86%

    22 December, Saturday

    Time Temperature Precipitation Wind Pressure Humidity
    00:00 +3°C° 0.2 mm 7 mps 731 mmHg 87%
    01:00 +3°C° 0.2 mm 7 mps 731 mmHg 87%
    02:00 +3°C° 0.1 mm 7 mps 731 mmHg 87%
    03:00 +3°C° 0.1 mm 7 mps 732 mmHg 86%
    04:00 +2°C° 0.1 mm 7 mps 732 mmHg 85%
    05:00 +2°C° 0 mm 6 mps 732 mmHg 85%
    06:00 +2°C° 0 mm 6 mps 732 mmHg 85%
    07:00 +2°C° 0 mm 6 mps 732 mmHg 85%
    08:00 +2°C° 0 mm 6 mps 732 mmHg 86%
    09:00 +2°C° 0 mm 6 mps 732 mmHg 87%
    10:00 +2°C° 0 mm 5 mps 732 mmHg 88%
    11:00 +3°C° 0.1 mm 5 mps 731 mmHg 88%
    12:00 +3°C° 0.1 mm 6 mps 730 mmHg 89%
    13:00 +4°C° 0.1 mm 6 mps 729 mmHg 90%
    14:00 +4°C° 0.8 mm 6 mps 729 mmHg 89%
    15:00 +4°C° 0.8 mm 7 mps 729 mmHg 88%
    16:00 +4°C° 0.8 mm 8 mps 729 mmHg 87%
    17:00 +4°C° 0.1 mm 7 mps 730 mmHg 88%
    18:00 +4°C° 0.1 mm 7 mps 731 mmHg 88%
    19:00 +4°C° 0.1 mm 6 mps 732 mmHg 88%
    20:00 +4°C° 0.1 mm 7 mps 732 mmHg 87%
    21:00 +3°C° 0.1 mm 7 mps 733 mmHg 86%
    22:00 +3°C° 0.1 mm 7 mps 733 mmHg 85%
    23:00 +3°C° 0.3 mm 7 mps 733 mmHg 85%

    23 December, Sunday

    Time Temperature Precipitation Wind Pressure Humidity
    00:00 +3°C° 0.3 mm 7 mps 733 mmHg 85%
    01:00 +3°C° 0.3 mm 6 mps 733 mmHg 84%
    02:00 +3°C° 0.4 mm 7 mps 734 mmHg 85%
    03:00 +3°C° 0.4 mm 7 mps 734 mmHg 86%
    04:00 +2°C° 0.4 mm 8 mps 735 mmHg 86%
    05:00 +3°C° 0.1 mm 7 mps 735 mmHg 86%
    06:00 +3°C° 0.1 mm 7 mps 736 mmHg 86%
    07:00 +2°C° 0.1 mm 7 mps 737 mmHg 85%
    08:00 +2°C° 0.1 mm 6 mps 737 mmHg 84%
    09:00 +3°C° 0.1 mm 6 mps 737 mmHg 83%
    10:00 +3°C° 0.1 mm 6 mps 738 mmHg 81%
    11:00 +3°C° 0.1 mm 6 mps 738 mmHg 80%
    12:00 +3°C° 0.1 mm 7 mps 738 mmHg 78%
    13:00 +4°C° 0.1 mm 7 mps 738 mmHg 76%
    14:00 +3°C° 0.1 mm 6 mps 738 mmHg 78%
    15:00 +3°C° 0.1 mm 6 mps 738 mmHg 79%
    16:00 +3°C° 0.1 mm 5 mps 738 mmHg 81%
    17:00 +2°C° 0.1 mm 6 mps 738 mmHg 82%
    18:00 +2°C° 0.1 mm 6 mps 738 mmHg 84%
    19:00 +2°C° 0.1 mm 6 mps 738 mmHg 86%
    20:00 +2°C° 0.2 mm 7 mps 739 mmHg 84%
    21:00 +2°C° 0.2 mm 7 mps 739 mmHg 83%
    22:00 +1°C° 0.2 mm 8 mps 739 mmHg 82%
    23:00 +2°C° 0.3 mm 7 mps 739 mmHg 82%

    24 December, Monday

    Time Temperature Precipitation Wind Pressure Humidity
    00:00 +2°C° 0.3 mm 7 mps 740 mmHg 83%
    01:00 0°C° 0.3 mm 7 mps 740 mmHg 83%
    02:00 +1°C° 0.1 mm 6 mps 741 mmHg 83%
    03:00 0°C° 0.1 mm 5 mps 741 mmHg 83%
    04:00 -1°C° 0.1 mm 4 mps 742 mmHg 84%
    05:00 -1°C° 0 mm 4 mps 742 mmHg 85%
    06:00 -1°C° 0 mm 3 mps 743 mmHg 87%
    07:00 -1°C° 0 mm 2 mps 743 mmHg 89%
    08:00 -1°C° 0 mm 2 mps 744 mmHg 87%
    09:00 +1°C° 0 mm 2 mps 744 mmHg 85%
    10:00 +1°C° 0 mm 2 mps 745 mmHg 83%
    11:00 +1°C° 0.2 mm 2 mps 745 mmHg 83%
    12:00 +2°C° 0.2 mm 2 mps 745 mmHg 83%
    13:00 +2°C° 0.2 mm 2 mps 745 mmHg 83%
    14:00 +2°C° 0.1 mm 2 mps 745 mmHg 86%
    15:00 +2°C° 0.1 mm 2 mps 745 mmHg 89%
    16:00 +1°C° 0.1 mm 2 mps 745 mmHg 92%
    17:00 +1°C° 0.1 mm 2 mps 746 mmHg 93%
    18:00 +1°C° 0.1 mm 2 mps 746 mmHg 94%
    19:00 +1°C° 0.1 mm 2 mps 746 mmHg 95%
    20:00 +1°C° 0.1 mm 2 mps 746 mmHg 95%
    21:00 +2°C° 0.1 mm 2 mps 746 mmHg 95%
    22:00 +2°C° 0.1 mm 2 mps 746 mmHg 95%
    23:00 +2°C° 0 mm 2 mps 746 mmHg 95%
    Show more